Location: Breungeshain
(50.5000°N, 9.2000°E)
Time: 09:47:13
(UTC+00:00)

ISS - Pass Details

Date: 25 May 2017
Orbit: 402 x 409 km, 51.6° (Epoch: 24 May)

Event Time Altitude Azimuth Distance (km) Brightness Sun altitude
Rises 20:35:29 0° 228° (SW) 2,325 0.0 -9.7°
Reaches altitude 10° 20:37:38 10° 220° (SW) 1,466 -1.1 -9.9°
Maximum altitude 20:40:42 37° 151° (SSE) 648 -3.3 -10.2°
Drops below altitude 10° 20:43:47 10° 82° (E) 1,470 -1.3 -10.5°
Sets 20:45:57 0° 74° (ENE) 2,332 -0.2 -10.7°
